This is the latest recevied weather packets stored in our database for station/object KC0QBU-13. If no packets are shown the sender has not sent any weather packets the latest 10 day(s).
| Time | Temp. | Humidity | Pressure | Rain* | Wind** | Luminosity | Snow |
|---|---|---|---|---|---|---|---|
| 1777645850 | 12.22° C | 46% | 1019.4 hPa | 0 mm | - | - | - |
| 1777645520 | 11.67° C | 49% | 1019.5 hPa | 0 mm | - | - | - |
| 1777645190 | 11.67° C | 49% | 1019.6 hPa | 0 mm | - | - | - |
| 1777644890 | 11.67° C | 51% | 1019.6 hPa | 0 mm | - | - | - |
| 1777644590 | 11.11° C | 51% | 1019.7 hPa | 0 mm | - | - | - |
| 1777644260 | 11.11° C | 53% | 1019.7 hPa | 0 mm | - | - | - |
| 1777643960 | 11.11° C | 53% | 1019.7 hPa | 0 mm | - | - | - |
| 1777643630 | 10.56° C | 53% | 1019.8 hPa | 0 mm | - | - | - |
| 1777643300 | 10.56° C | 54% | 1019.9 hPa | 0 mm | - | - | - |
| 1777643000 | 10.56° C | 55% | 1019.9 hPa | 0 mm | - | - | - |
| 1777642700 | 10° C | 55% | 1019.9 hPa | 0 mm | - | - | - |
| 1777642400 | 10° C | 58% | 1019.8 hPa | 0 mm | - | - | - |
| 1777642100 | 9.44° C | 61% | 1019.8 hPa | 0 mm | - | - | - |
| 1777641770 | 8.89° C | 66% | 1020.1 hPa | 0 mm | - | - | - |
| 1777641440 | 8.33° C | 68% | 1020.1 hPa | 0 mm | - | - | - |
| 1777641140 | 8.33° C | 70% | 1020 hPa | 0 mm | - | - | - |
| 1777640840 | 7.78° C | 70% | 1019.9 hPa | 0 mm | - | - | - |
| 1777640540 | 7.78° C | 73% | 1019.9 hPa | 0 mm | - | - | - |
| 1777640240 | 7.22° C | 73% | 1019.8 hPa | 0 mm | - | - | - |
| 1777639940 | 7.22° C | 75% | 1019.8 hPa | 0 mm | - | - | - |
| 1777639610 | 6.67° C | 75% | 1019.7 hPa | 0 mm | - | - | - |
| 1777639310 | 6.67° C | 76% | 1019.8 hPa | 0 mm | - | - | - |
| 1777638980 | 6.11° C | 76% | 1019.8 hPa | 0 mm | - | - | - |
| 1777638650 | 6.11° C | 78% | 1019.9 hPa | 0 mm | - | - | - |
| 1777638320 | 5.56° C | 80% | 1019.9 hPa | 0 mm | - | - | - |
* Rain latest hour (hover to see other rain measurements)
** Current wind speed in m/s (hover to see current wind gust speed)